This is the latest recevied weather packets stored in our database for station/object SR9SMR. If no packets are shown the sender has not sent any weather packets the latest 1 day(s).
| Time | Temp. | Humidity | Pressure | Rain* | Wind** | Luminosity | Snow |
|---|---|---|---|---|---|---|---|
| 1778028250 | 11.11° C | 100% | 888.8 hPa | - | 10.28 m/s, 217° | - | - |
| 1778027948 | 11.11° C | 100% | 895.7 hPa | - | 10.28 m/s, 217° | - | - |
| 1778027646 | 11.11° C | 100% | 894 hPa | - | 10.28 m/s, 219° | - | - |
| 1778027343 | 11.11° C | 100% | 889.2 hPa | - | 10.73 m/s, 217° | - | - |
| 1778027041 | 11.11° C | 100% | 898.1 hPa | - | 11.62 m/s, 218° | - | - |
| 1778026739 | 11.67° C | 100% | 896.5 hPa | - | 10.28 m/s, 216° | - | - |
| 1778026439 | 11.67° C | 100% | 889 hPa | - | 11.62 m/s, 215° | - | - |
| 1778026137 | 11.67° C | 100% | 897.3 hPa | - | 11.62 m/s, 215° | - | - |
| 1778025835 | 11.67° C | 100% | 895.3 hPa | - | 9.83 m/s, 217° | - | - |
| 1778025534 | 11.67° C | 100% | 889.7 hPa | - | 10.28 m/s, 218° | - | - |
| 1778025233 | 11.67° C | 100% | 889.7 hPa | - | 11.18 m/s, 215° | - | - |
| 1778024931 | 12.22° C | 100% | 892.7 hPa | - | 11.62 m/s, 217° | - | - |
| 1778024630 | 12.22° C | 100% | 890 hPa | - | 11.62 m/s, 215° | - | - |
| 1778024328 | 12.22° C | 100% | 890.9 hPa | - | 10.73 m/s, 210° | - | - |
| 1778024025 | 12.22° C | 100% | 890.8 hPa | - | 10.28 m/s, 213° | - | - |
| 1778023966 | 12.22° C | 100% | 890.8 hPa | - | 10.28 m/s, 213° | - | - |
| 1778023840 | 12.22° C | 100% | 889.1 hPa | - | 11.62 m/s, 214° | - | - |
| 1778023718 | 12.22° C | 100% | 891.1 hPa | - | 10.73 m/s, 214° | - | - |
| 1778023597 | 12.78° C | 100% | 894.4 hPa | - | 10.73 m/s, 212° | - | - |
| 1778023477 | 12.78° C | 100% | 890 hPa | - | 12.07 m/s, 213° | - | - |
| 1778023417 | 12.78° C | 100% | 896.7 hPa | - | 12.52 m/s, 211° | - | - |
| 1778023356 | 12.78° C | 100% | 889.2 hPa | - | 12.52 m/s, 210° | - | - |
| 1778023235 | 12.78° C | 100% | 890.4 hPa | - | 11.18 m/s, 211° | - | - |
| 1778023115 | 12.78° C | 100% | 897 hPa | - | 10.73 m/s, 217° | - | - |
| 1778022994 | 12.78° C | 100% | 890.7 hPa | - | 11.62 m/s, 218° | - | - |
* Rain since midnight (hover to see other rain measurements)
** Current wind speed in m/s (hover to see current wind gust speed)